Location: Leimbach
(47.5611°N, 9.1881°E)
Time: 06:54:41
(UTC+00:00)

STARLINK-31 - Pass Details

Date: 07 June 2020
Orbit: 426 x 436 km, 53.0° (Epoch: 12 July)

Event Time Altitude Azimuth Distance (km) Brightness Sun altitude
Exits shadow 01:54:01 15° 178° (S) 1,176 4.8 -11.8°
Maximum altitude 01:55:42 22° 137° (SE) 928 4.7 -11.6°
Drops below altitude 10° 01:58:17 10° 84° (E) 1,448 6.4 -11.4°
Sets 02:00:38 0° 69° (ENE) 2,314 7.9 -11.2°
